| time (UTC) | temp C | wind direction | speed KPH | gust KPH | rain 1hr cm | rain 24hr cm | rain mn cm | humidity % | barometer mb |
| 20260506125800 | 24 | 170 | 0.0 | 3.2 | 0.00 | 0.00 | 0.00 | 96 | 1009.6 |
| 20260506125309 | 24 | 170 | 0.0 | 3.2 | 0.00 | 0.00 | 0.00 | 96 | 1009.5 |
| 20260506124542 | 24 | 170 | 0.0 | 3.2 | 0.00 | 0.00 | 0.00 | 96 | 1009.4 |
| 20260506124042 | 24 | 170 | 0.0 | 3.2 | 0.00 | 0.00 | 0.00 | 96 | 1009.4 |
| 20260506123523 | 24 | 171 | 0.0 | 3.2 | 0.00 | 0.00 | 0.00 | 96 | 1009.4 |
| 20260506122959 | 24 | 171 | 0.0 | 1.6 | 0.00 | 0.00 | 0.00 | 95 | 1009.3 |
| 20260506122450 | 24 | 171 | 0.0 | 1.6 | 0.00 | 0.00 | 0.00 | 95 | 1009.3 |
| 20260506121946 | 23 | 171 | 0.0 | 1.6 | 0.00 | 0.00 | 0.00 | 95 | 1009.3 |
| 20260506121449 | 23 | 171 | 0.0 | 1.6 | 0.00 | 0.00 | 0.00 | 95 | 1009.2 |
| 20260506121211 | 23 | 171 | 0.0 | 1.6 | 0.00 | 0.00 | 0.00 | 95 | 1009.2 |
| 20260506120447 | 23 | 171 | 0.0 | 1.6 | 0.00 | 0.00 | 0.00 | 95 | 1009.2 |
| 20260506115925 | 23 | 171 | 0.0 | 1.6 | 0.00 | 0.00 | 0.00 | 95 | 1009.2 |
| 20260506115406 | 23 | 171 | 0.0 | 0.0 | 0.00 | 0.00 | 0.00 | 95 | 1009.1 |
| 20260506114842 | 23 | 171 | 0.0 | 0.0 | 0.00 | 0.00 | 0.00 | 95 | 1009.0 |
| 20260506114343 | 23 | 171 | 0.0 | 1.6 | 0.00 | 0.00 | 0.00 | 95 | 1009.0 |
| 20260506114101 | 23 | 171 | 0.0 | 3.2 | 0.00 | 0.00 | 0.00 | 95 | 1009.0 |
| 20260506113313 | 23 | 171 | 0.0 | 3.2 | 0.00 | 0.00 | 0.00 | 95 | 1008.9 |
| 20260506112810 | 23 | 171 | 0.0 | 1.6 | 0.00 | 0.00 | 0.00 | 95 | 1008.8 |
| 20260506112311 | 23 | 171 | 0.0 | 6.4 | 0.00 | 0.00 | 0.00 | 95 | 1008.7 |
| 20260506112030 | 23 | 171 | 1.6 | 6.4 | 0.00 | 0.00 | 0.00 | 95 | 1008.6 |
| 20260506111756 | 23 | 133 | 1.6 | 6.4 | 0.00 | 0.00 | 0.00 | 95 | 1008.5 |
| 20260506110808 | 23 | 165 | 1.6 | 8.0 | 0.00 | 0.00 | 0.00 | 94 | 1008.4 |
| 20260506110243 | 23 | 169 | 0.0 | 4.8 | 0.00 | 0.00 | 0.00 | 94 | 1008.3 |
| 20260506105718 | 23 | 195 | 1.6 | 4.8 | 0.00 | 0.00 | 0.00 | 94 | 1008.2 |
| 20260506105220 | 23 | 196 | 1.6 | 6.4 | 0.00 | 0.00 | 0.00 | 94 | 1008.2 |
| 20260506104719 | 23 | 194 | 1.6 | 6.4 | 0.00 | 0.00 | 0.00 | 94 | 1008.1 |
| 20260506104218 | 23 | 178 | 1.6 | 6.4 | 0.00 | 0.00 | 0.00 | 94 | 1008.1 |
| 20260506103717 | 23 | 179 | 1.6 | 6.4 | 0.00 | 0.00 | 0.00 | 93 | 1008.2 |
| 20260506103154 | 24 | 165 | 1.6 | 6.4 | 0.00 | 0.00 | 0.00 | 93 | 1008.2 |
| 20260506102653 | 24 | 163 | 3.2 | 8.0 | 0.00 | 0.00 | 0.00 | 94 | 1008.2 |
| 20260506102142 | 24 | 174 | 3.2 | 9.7 | 0.00 | 0.00 | 0.00 | 93 | 1008.1 |
| 20260506101839 | 24 | 165 | 3.2 | 9.7 | 0.00 | 0.00 | 0.00 | 93 | 1008.1 |
| 20260506101057 | 24 | 189 | 3.2 | 6.4 | 0.00 | 0.00 | 0.00 | 93 | 1008.2 |
| 20260506100556 | 24 | 187 | 3.2 | 6.4 | 0.00 | 0.00 | 0.00 | 93 | 1008.2 |
| 20260506100057 | 24 | 177 | 1.6 | 4.8 | 0.00 | 0.00 | 0.00 | 93 | 1008.2 |
| 20260506095537 | 24 | 193 | 1.6 | 8.0 | 0.00 | 0.00 | 0.00 | 93 | 1008.1 |
| 20260506095009 | 24 | 172 | 1.6 | 9.7 | 0.00 | 0.00 | 0.00 | 93 | 1008.1 |
| 20260506094442 | 24 | 196 | 1.6 | 9.7 | 0.00 | 0.00 | 0.00 | 93 | 1008.0 |
| 20260506093941 | 24 | 262 | 1.6 | 8.0 | 0.00 | 0.00 | 0.00 | 93 | 1007.9 |
| 20260506093418 | 24 | 160 | 3.2 | 11.3 | 0.00 | 0.00 | 0.00 | 92 | 1007.9 |
| 20260506092908 | 24 | 153 | 3.2 | 11.3 | 0.00 | 0.00 | 0.00 | 92 | 1007.8 |
| 20260506092408 | 24 | 161 | 3.2 | 8.0 | 0.00 | 0.00 | 0.00 | 92 | 1007.7 |
| 20260506091908 | 24 | 152 | 1.6 | 8.0 | 0.00 | 0.00 | 0.00 | 92 | 1007.7 |
| 20260506091406 | 25 | 179 | 3.2 | 6.4 | 0.00 | 0.00 | 0.00 | 92 | 1007.7 |
| 20260506091109 | 25 | 148 | 4.8 | 17.7 | 0.00 | 0.00 | 0.00 | 92 | 1007.7 |
| 20260506090605 | 25 | 201 | 4.8 | 17.7 | 0.00 | 0.00 | 0.00 | 92 | 1007.7 |
| 20260506090038 | 25 | 211 | 4.8 | 12.9 | 0.00 | 0.00 | 0.00 | 92 | 1007.8 |
| 20260506085256 | 25 | 212 | 3.2 | 12.9 | 0.00 | 0.00 | 0.00 | 92 | 1007.8 |
| 20260506084731 | 25 | 96 | 3.2 | 9.7 | 0.00 | 0.00 | 0.00 | 92 | 1007.9 |
| 20260506084206 | 25 | 177 | 3.2 | 6.4 | 0.00 | 0.00 | 0.00 | 92 | 1008.0 |
| 20260506083643 | 25 | 141 | 1.6 | 6.4 | 0.00 | 0.00 | 0.00 | 92 | 1007.9 |
| 20260506083122 | 25 | 186 | 3.2 | 11.3 | 0.00 | 0.00 | 0.00 | 92 | 1008.0 |
| 20260506082622 | 25 | 188 | 3.2 | 11.3 | 0.00 | 0.00 | 0.00 | 92 | 1008.0 |
| 20260506082125 | 25 | 156 | 3.2 | 8.0 | 0.00 | 0.00 | 0.00 | 92 | 1008.0 |
| 20260506081603 | 25 | 193 | 3.2 | 8.0 | 0.00 | 0.00 | 0.00 | 92 | 1008.1 |
| 20260506081039 | 25 | 180 | 1.6 | 8.0 | 0.00 | 0.00 | 0.00 | 92 | 1008.2 |
| 20260506080514 | 25 | 160 | 3.2 | 8.0 | 0.00 | 0.00 | 0.00 | 92 | 1008.3 |
| 20260506080451 | 25 | 200 | 3.2 | 8.0 | 0.00 | 0.00 | 0.00 | 92 | 1008.3 |
| 20260506073408 | 25 | 133 | 1.6 | 11.3 | 0.00 | 0.00 | 0.00 | 92 | 1008.7 |
| 20260506072841 | 25 | 168 | 3.2 | 9.7 | 0.00 | 0.00 | 0.00 | 91 | 1008.7 |
| 20260506072325 | 25 | 161 | 3.2 | 9.7 | 0.00 | 0.00 | 0.00 | 91 | 1008.8 |
| 20260506071825 | 25 | 190 | 3.2 | 9.7 | 0.00 | 0.00 | 0.00 | 91 | 1008.9 |
| 20260506071549 | 25 | 132 | 1.6 | 9.7 | 0.00 | 0.00 | 0.00 | 91 | 1008.8 |
| 20260506071256 | 25 | 184 | 3.2 | 11.3 | 0.00 | 0.00 | 0.00 | 91 | 1008.9 |
| 20260506070914 | 25 | 178 | 1.6 | 9.7 | 0.00 | 0.00 | 0.00 | 91 | 1008.9 |
| 20260506062214 | 25 | 125 | 3.2 | 12.9 | 0.00 | 0.00 | 0.00 | 91 | 1008.9 |
| 20260506061713 | 25 | 171 | 3.2 | 11.3 | 0.00 | 0.00 | 0.00 | 91 | 1008.9 |
| 20260506061150 | 25 | 188 | 4.8 | 14.5 | 0.00 | 0.00 | 0.00 | 91 | 1009.0 |
| 20260506060636 | 25 | 172 | 3.2 | 14.5 | 0.00 | 0.00 | 0.00 | 91 | 1009.0 |
| 20260506051340 | 25 | 174 | 3.2 | 11.3 | 0.00 | 0.00 | 0.00 | 90 | 1009.0 |
| 20260506050818 | 25 | 200 | 3.2 | 11.3 | 0.00 | 0.00 | 0.00 | 89 | 1009.1 |
| 20260506050317 | 25 | 194 | 1.6 | 9.7 | 0.00 | 0.00 | 0.00 | 89 | 1009.2 |
| 20260506044746 | 25 | 158 | 3.2 | 14.5 | 0.00 | 0.00 | 0.00 | 88 | 1008.9 |
| 20260506044218 | 25 | 167 | 3.2 | 11.3 | 0.00 | 0.00 | 0.00 | 88 | 1008.8 |
| 20260506043938 | 25 | 194 | 3.2 | 11.3 | 0.00 | 0.00 | 0.00 | 88 | 1008.9 |
| 20260506043410 | 25 | 173 | 3.2 | 14.5 | 0.00 | 0.00 | 0.00 | 88 | 1009.0 |
| 20260506043134 | 25 | 170 | 1.6 | 14.5 | 0.00 | 0.00 | 0.00 | 88 | 1009.1 |
| 20260506042353 | 25 | 160 | 1.6 | 8.0 | 0.00 | 0.00 | 0.00 | 88 | 1009.0 |
| 20260506041632 | 25 | 203 | 3.2 | 9.7 | 0.00 | 0.00 | 0.00 | 88 | 1008.9 |
| 20260506041104 | 25 | 186 | 3.2 | 9.7 | 0.00 | 0.00 | 0.00 | 88 | 1008.9 |
| 20260506040601 | 25 | 214 | 3.2 | 9.7 | 0.00 | 0.00 | 0.00 | 88 | 1008.9 |
| 20260506040034 | 25 | 185 | 3.2 | 9.7 | 0.00 | 0.00 | 0.00 | 88 | 1008.9 |
| 20260506035756 | 25 | 148 | 3.2 | 8.0 | 0.00 | 0.00 | 0.00 | 88 | 1008.8 |
| 20260506035026 | 25 | 118 | 1.6 | 9.7 | 0.00 | 0.00 | 0.00 | 88 | 1008.7 |
| 20260506034522 | 25 | 202 | 1.6 | 9.7 | 0.00 | 0.00 | 0.00 | 87 | 1008.5 |
| 20260506034013 | 25 | 136 | 3.2 | 6.4 | 0.00 | 0.00 | 0.00 | 87 | 1008.5 |
| 20260506033446 | 25 | 146 | 3.2 | 9.7 | 0.00 | 0.00 | 0.00 | 87 | 1008.6 |
| 20260506032943 | 25 | 117 | 1.6 | 6.4 | 0.00 | 0.00 | 0.00 | 87 | 1008.6 |
| 20260506032418 | 26 | 225 | 1.6 | 8.0 | 0.00 | 0.00 | 0.00 | 87 | 1008.4 |
| 20260506031912 | 26 | 196 | 3.2 | 11.3 | 0.00 | 0.00 | 0.00 | 87 | 1008.5 |
| 20260506031408 | 26 | 237 | 3.2 | 11.3 | 0.00 | 0.00 | 0.00 | 87 | 1008.4 |
| 20260506030844 | 26 | 180 | 4.8 | 12.9 | 0.00 | 0.00 | 0.00 | 87 | 1008.3 |
| 20260506030323 | 26 | 187 | 3.2 | 14.5 | 0.00 | 0.00 | 0.00 | 87 | 1008.3 |
| 20260506025802 | 26 | 105 | 3.2 | 14.5 | 0.00 | 0.00 | 0.00 | 87 | 1008.2 |
| 20260506025305 | 26 | 148 | 3.2 | 12.9 | 0.00 | 0.00 | 0.00 | 87 | 1008.1 |
| 20260506024737 | 26 | 146 | 3.2 | 8.0 | 0.00 | 0.00 | 0.00 | 86 | 1008.0 |
| 20260506024233 | 26 | 208 | 3.2 | 11.3 | 0.00 | 0.00 | 0.00 | 86 | 1007.9 |
| 20260506023707 | 26 | 147 | 3.2 | 11.3 | 0.00 | 0.00 | 0.00 | 86 | 1007.7 |
| 20260506023203 | 26 | 194 | 4.8 | 16.1 | 0.00 | 0.00 | 0.00 | 86 | 1007.6 |
| 20260506022637 | 26 | 252 | 4.8 | 16.1 | 0.00 | 0.00 | 0.00 | 86 | 1007.5 |
| 20260506022112 | 26 | 190 | 4.8 | 14.5 | 0.00 | 0.00 | 0.00 | 86 | 1007.5 |
| 20260506021542 | 26 | 194 | 4.8 | 24.1 | 0.00 | 0.00 | 0.00 | 85 | 1007.5 |
| 20260506021234 | 26 | 210 | 3.2 | 24.1 | 0.00 | 0.00 | 0.00 | 85 | 1007.5 |
| 20260506020512 | 26 | 180 | 3.2 | 9.7 | 0.00 | 0.00 | 0.00 | 85 | 1007.5 |
| 20260506020009 | 26 | 175 | 1.6 | 4.8 | 0.00 | 0.00 | 0.00 | 85 | 1007.4 |
| 20260506015506 | 26 | 157 | 3.2 | 11.3 | 0.00 | 0.00 | 0.00 | 85 | 1007.3 |
| 20260506015220 | 26 | 193 | 1.6 | 11.3 | 0.00 | 0.00 | 0.00 | 85 | 1007.3 |
| 20260506014456 | 26 | 157 | 3.2 | 11.3 | 0.00 | 0.00 | 0.00 | 84 | 1007.3 |
| 20260506013932 | 26 | 195 | 3.2 | 11.3 | 0.00 | 0.00 | 0.00 | 84 | 1007.2 |
| 20260506013847 | 26 | 176 | 3.2 | 11.3 | 0.00 | 0.00 | 0.00 | 84 | 1007.1 |
| 20260506012854 | 26 | 154 | 3.2 | 11.3 | 0.00 | 0.00 | 0.00 | 84 | 1007.0 |
| 20260506012352 | 26 | 178 | 3.2 | 12.9 | 0.00 | 0.00 | 0.00 | 84 | 1007.0 |
| 20260506011825 | 26 | 145 | 3.2 | 14.5 | 0.00 | 0.00 | 0.00 | 84 | 1006.9 |
| 20260506011321 | 26 | 142 | 3.2 | 14.5 | 0.00 | 0.00 | 0.00 | 84 | 1006.7 |
| 20260506010818 | 26 | 168 | 3.2 | 14.5 | 0.00 | 0.00 | 0.00 | 83 | 1006.6 |
| 20260506010316 | 26 | 170 | 1.6 | 8.0 | 0.00 | 0.00 | 0.00 | 83 | 1006.6 |
| 20260506005803 | 26 | 194 | 3.2 | 12.9 | 0.00 | 0.00 | 0.00 | 83 | 1006.6 |
| 20260506005306 | 26 | 182 | 3.2 | 12.9 | 0.00 | 0.00 | 0.00 | 83 | 1006.6 |
| 20260506005003 | 27 | 161 | 3.2 | 14.5 | 0.00 | 0.00 | 0.00 | 83 | 1006.5 |
| 20260506004442 | 27 | 151 | 4.8 | 14.5 | 0.00 | 0.00 | 0.00 | 82 | 1006.5 |
| 20260506003717 | 27 | 130 | 4.8 | 11.3 | 0.00 | 0.00 | 0.00 | 82 | 1006.4 |
| 20260506003152 | 27 | 140 | 3.2 | 9.7 | 0.00 | 0.00 | 0.00 | 82 | 1006.5 |
| 20260506002624 | 27 | 141 | 3.2 | 12.9 | 0.00 | 0.00 | 0.00 | 81 | 1006.5 |
| 20260506002121 | 27 | 198 | 3.2 | 9.7 | 0.00 | 0.00 | 0.00 | 81 | 1006.4 |
| 20260506001619 | 27 | 186 | 3.2 | 11.3 | 0.00 | 0.00 | 0.00 | 81 | 1006.4 |
| 20260506001116 | 27 | 177 | 4.8 | 14.5 | 0.00 | 0.00 | 0.00 | 80 | 1006.3 |
| 20260506000817 | 27 | 171 | 4.8 | 14.5 | 0.00 | 0.00 | 0.00 | 80 | 1006.2 |
| 20260506000504 | 27 | 172 | 3.2 | 14.5 | 0.00 | 0.00 | 0.00 | 80 | 1006.4 |
| 20260505235520 | 27 | 180 | 4.8 | 14.5 | 0.00 | 0.00 | 0.00 | 80 | 1006.3 |
| 20260505234953 | 27 | 172 | 4.8 | 14.5 | 0.00 | 0.00 | 0.00 | 80 | 1006.3 |
| 20260505234426 | 27 | 174 | 4.8 | 14.5 | 0.00 | 0.00 | 0.00 | 79 | 1006.4 |
| 20260505234146 | 27 | 147 | 4.8 | 11.3 | 0.00 | 0.00 | 0.00 | 80 | 1006.3 |
| 20260505233358 | 28 | 159 | 3.2 | 12.9 | 0.00 | 0.00 | 0.00 | 80 | 1006.2 |
| 20260505233057 | 28 | 144 | 3.2 | 12.9 | 0.00 | 0.00 | 0.00 | 80 | 1006.3 |
| 20260505232531 | 28 | 209 | 3.2 | 12.9 | 0.00 | 0.00 | 0.00 | 80 | 1006.3 |
| 20260505231738 | 28 | 186 | 3.2 | 12.9 | 0.00 | 0.00 | 0.00 | 80 | 1006.2 |
| 20260505231236 | 28 | 144 | 3.2 | 12.9 | 0.00 | 0.00 | 0.00 | 80 | 1006.2 |
| 20260505230954 | 28 | 165 | 3.2 | 12.9 | 0.00 | 0.00 | 0.00 | 79 | 1006.3 |
| 20260505230230 | 28 | 197 | 4.8 | 12.9 | 0.00 | 0.00 | 0.00 | 79 | 1006.3 |
| 20260505225702 | 28 | 156 | 6.4 | 16.1 | 0.00 | 0.00 | 0.00 | 79 | 1006.4 |
| 20260505225200 | 28 | 132 | 4.8 | 12.9 | 0.00 | 0.00 | 0.00 | 79 | 1006.3 |
| 20260505224632 | 28 | 198 | 4.8 | 11.3 | 0.00 | 0.00 | 0.00 | 79 | 1006.2 |
| 20260505224129 | 28 | 159 | 6.4 | 19.3 | 0.00 | 0.00 | 0.00 | 79 | 1006.3 |
| 20260505223611 | 28 | 146 | 6.4 | 19.3 | 0.00 | 0.00 | 0.00 | 79 | 1006.2 |
| 20260505223111 | 28 | 209 | 6.4 | 14.5 | 0.00 | 0.00 | 0.00 | 79 | 1006.3 |
| 20260505222831 | 28 | 157 | 6.4 | 14.5 | 0.00 | 0.00 | 0.00 | 78 | 1006.3 |
| 20260505222306 | 28 | 208 | 4.8 | 19.3 | 0.00 | 0.00 | 0.00 | 79 | 1006.3 |
| 20260505221520 | 28 | 148 | 6.4 | 19.3 | 0.00 | 0.00 | 0.00 | 78 | 1006.3 |
| 20260505221018 | 28 | 194 | 4.8 | 16.1 | 0.00 | 0.00 | 0.00 | 78 | 1006.4 |
| 20260505220937 | 28 | 157 | 4.8 | 17.7 | 0.00 | 0.00 | 0.00 | 78 | 1006.4 |
| 20260505215947 | 28 | 171 | 4.8 | 17.7 | 0.00 | 0.00 | 0.00 | 79 | 1006.5 |
| 20260505215421 | 28 | 144 | 4.8 | 14.5 | 0.00 | 0.00 | 0.00 | 80 | 1006.6 |
| 20260505215114 | 28 | 159 | 4.8 | 11.3 | 0.00 | 0.00 | 0.00 | 79 | 1006.7 |
| 20260505214352 | 28 | 126 | 4.8 | 20.9 | 0.00 | 0.00 | 0.00 | 79 | 1006.7 |
| 20260505213826 | 28 | 117 | 4.8 | 19.3 | 0.00 | 0.00 | 0.00 | 78 | 1006.9 |
| 20260505213529 | 28 | 211 | 4.8 | 19.3 | 0.00 | 0.00 | 0.00 | 78 | 1006.9 |
| 20260505212731 | 28 | 207 | 4.8 | 12.9 | 0.00 | 0.00 | 0.00 | 79 | 1006.9 |
| 20260505212205 | 28 | 198 | 4.8 | 12.9 | 0.00 | 0.00 | 0.00 | 79 | 1006.9 |
| 20260505211701 | 28 | 217 | 4.8 | 11.3 | 0.00 | 0.00 | 0.00 | 79 | 1006.9 |
| 20260505211158 | 28 | 127 | 4.8 | 14.5 | 0.00 | 0.00 | 0.00 | 78 | 1007.0 |
| 20260505210655 | 28 | 193 | 4.8 | 14.5 | 0.00 | 0.00 | 0.00 | 78 | 1007.1 |
| 20260505210151 | 29 | 189 | 4.8 | 12.9 | 0.00 | 0.00 | 0.00 | 78 | 1007.1 |
| 20260505205624 | 29 | 172 | 3.2 | 11.3 | 0.00 | 0.00 | 0.00 | 78 | 1007.1 |
| 20260505205345 | 29 | 196 | 3.2 | 9.7 | 0.00 | 0.00 | 0.00 | 77 | 1007.2 |
| 20260505204618 | 29 | 214 | 4.8 | 14.5 | 0.00 | 0.00 | 0.00 | 78 | 1007.2 |
| 20260505204115 | 29 | 178 | 4.8 | 14.5 | 0.00 | 0.00 | 0.00 | 77 | 1007.3 |
| 20260505203551 | 29 | 180 | 4.8 | 14.5 | 0.00 | 0.00 | 0.00 | 77 | 1007.4 |
| 20260505203023 | 29 | 175 | 4.8 | 14.5 | 0.00 | 0.00 | 0.00 | 77 | 1007.4 |
| 20260505202521 | 29 | 227 | 4.8 | 12.9 | 0.00 | 0.00 | 0.00 | 77 | 1007.4 |
| 20260505201954 | 29 | 136 | 4.8 | 12.9 | 0.00 | 0.00 | 0.00 | 77 | 1007.6 |
| 20260505201427 | 28 | 264 | 4.8 | 16.1 | 0.00 | 0.00 | 0.00 | 78 | 1007.7 |
| 20260505200902 | 28 | 130 | 4.8 | 19.3 | 0.00 | 0.00 | 0.00 | 78 | 1007.8 |
| 20260505200600 | 28 | 153 | 4.8 | 19.3 | 0.00 | 0.00 | 0.00 | 77 | 1008.0 |
| 20260505200034 | 28 | 137 | 4.8 | 9.7 | 0.00 | 0.00 | 0.00 | 78 | 1008.0 |
| 20260505195243 | 28 | 188 | 4.8 | 16.1 | 0.00 | 0.00 | 0.00 | 79 | 1008.1 |
| 20260505194853 | 28 | 159 | 4.8 | 11.3 | 0.00 | 0.00 | 0.00 | 79 | 1008.2 |
| 20260505194742 | 28 | 184 | 4.8 | 14.5 | 0.00 | 0.00 | 0.00 | 80 | 1008.1 |
| 20260505193646 | 28 | 174 | 4.8 | 11.3 | 0.00 | 0.00 | 0.00 | 80 | 1008.3 |
| 20260505193142 | 28 | 167 | 4.8 | 12.9 | 0.00 | 0.00 | 0.00 | 80 | 1008.3 |
| 20260505192640 | 28 | 226 | 4.8 | 12.9 | 0.00 | 0.00 | 0.00 | 80 | 1008.3 |
| 20260505192137 | 28 | 149 | 3.2 | 9.7 | 0.00 | 0.00 | 0.00 | 78 | 1008.4 |
| 20260505191611 | 28 | 182 | 3.2 | 9.7 | 0.00 | 0.00 | 0.00 | 79 | 1008.2 |
| 20260505191044 | 28 | 70 | 4.8 | 11.3 | 0.00 | 0.00 | 0.00 | 78 | 1008.3 |
| 20260505190542 | 29 | 175 | 3.2 | 11.3 | 0.00 | 0.00 | 0.00 | 77 | 1008.4 |
| 20260505190012 | 29 | 188 | 3.2 | 14.5 | 0.00 | 0.00 | 0.00 | 78 | 1008.4 |
| 20260505185716 | 28 | 150 | 4.8 | 14.5 | 0.00 | 0.00 | 0.00 | 80 | 1008.4 |
| 20260505184920 | 28 | 207 | 4.8 | 12.9 | 0.00 | 0.00 | 0.00 | 80 | 1008.5 |
| 20260505184417 | 28 | 220 | 4.8 | 11.3 | 0.00 | 0.00 | 0.00 | 81 | 1008.5 |
| 20260505183850 | 27 | 188 | 4.8 | 11.3 | 0.00 | 0.00 | 0.00 | 81 | 1008.6 |
| 20260505183346 | 27 | 176 | 4.8 | 11.3 | 0.00 | 0.00 | 0.00 | 81 | 1008.6 |
| 20260505183101 | 28 | 175 | 4.8 | 14.5 | 0.00 | 0.00 | 0.00 | 81 | 1008.7 |
| 20260505182342 | 28 | 168 | 3.2 | 14.5 | 0.00 | 0.00 | 0.00 | 81 | 1008.6 |
| 20260505181814 | 27 | 171 | 3.2 | 16.1 | 0.00 | 0.00 | 0.00 | 83 | 1008.7 |
| 20260505181311 | 27 | 184 | 3.2 | 16.1 | 0.00 | 0.00 | 0.00 | 83 | 1008.8 |
| 20260505181004 | 27 | 200 | 3.2 | 9.7 | 0.00 | 0.00 | 0.00 | 83 | 1008.8 |
| 20260505180242 | 27 | 155 | 4.8 | 11.3 | 0.00 | 0.00 | 0.00 | 82 | 1008.8 |
| 20260505175714 | 27 | 178 | 3.2 | 11.3 | 0.00 | 0.00 | 0.00 | 83 | 1008.7 |
| 20260505175212 | 27 | 186 | 3.2 | 11.3 | 0.00 | 0.00 | 0.00 | 84 | 1008.8 |
| 20260505174644 | 27 | 200 | 3.2 | 11.3 | 0.00 | 0.00 | 0.00 | 84 | 1008.9 |
| 20260505174142 | 26 | 222 | 3.2 | 11.3 | 0.00 | 0.00 | 0.00 | 84 | 1009.0 |
| 20260505174104 | 26 | 172 | 3.2 | 8.0 | 0.00 | 0.00 | 0.00 | 84 | 1009.0 |
| 20260505173048 | 26 | 288 | 4.8 | 14.5 | 0.00 | 0.00 | 0.00 | 84 | 1009.0 |
| 20260505172806 | 26 | 38 | 3.2 | 14.5 | 0.00 | 0.00 | 0.00 | 84 | 1009.1 |
| 20260505172033 | 26 | 236 | 3.2 | 11.3 | 0.00 | 0.00 | 0.00 | 86 | 1009.2 |
| 20260505171536 | 26 | 209 | 3.2 | 11.3 | 0.00 | 0.00 | 0.00 | 87 | 1009.2 |
| 20260505171008 | 26 | 188 | 3.2 | 9.7 | 0.00 | 0.00 | 0.00 | 88 | 1009.1 |
| 20260505170729 | 26 | 162 | 3.2 | 11.3 | 0.00 | 0.00 | 0.00 | 88 | 1009.3 |
| 20260505165941 | 25 | 231 | 3.2 | 11.3 | 0.00 | 0.00 | 0.00 | 87 | 1009.4 |
| 20260505165632 | 26 | 145 | 3.2 | 9.7 | 0.00 | 0.00 | 0.00 | 87 | 1009.4 |
| 20260505164910 | 26 | 173 | 3.2 | 9.7 | 0.00 | 0.00 | 0.00 | 86 | 1009.4 |
| 20260505164406 | 26 | 180 | 3.2 | 12.9 | 0.00 | 0.00 | 0.00 | 86 | 1009.3 |
| 20260505163904 | 26 | 196 | 4.8 | 12.9 | 0.00 | 0.00 | 0.00 | 86 | 1009.3 |
| 20260505163336 | 26 | 190 | 3.2 | 12.9 | 0.00 | 0.00 | 0.00 | 86 | 1009.4 |
| 20260505162833 | 26 | 204 | 3.2 | 9.7 | 0.00 | 0.00 | 0.00 | 87 | 1009.3 |
| 20260505162307 | 26 | 182 | 3.2 | 9.7 | 0.00 | 0.00 | 0.00 | 87 | 1009.3 |
| 20260505161805 | 26 | 162 | 3.2 | 9.7 | 0.00 | 0.00 | 0.00 | 87 | 1009.2 |
| 20260505161531 | 25 | 138 | 4.8 | 11.3 | 0.00 | 0.00 | 0.00 | 87 | 1009.2 |
| 20260505160955 | 25 | 157 | 3.2 | 11.3 | 0.00 | 0.00 | 0.00 | 87 | 1009.2 |
| 20260505160231 | 25 | 269 | 3.2 | 11.3 | 0.00 | 0.00 | 0.00 | 87 | 1009.2 |
| 20260505153016 | 25 | 166 | 3.2 | 14.5 | 0.00 | 0.00 | 0.00 | 88 | 1009.1 |
| 20260505152513 | 25 | 246 | 3.2 | 14.5 | 0.00 | 0.00 | 0.00 | 88 | 1009.0 |
| 20260505151949 | 25 | 210 | 3.2 | 11.3 | 0.00 | 0.00 | 0.00 | 88 | 1009.0 |
| 20260505151420 | 25 | 157 | 3.2 | 8.0 | 0.00 | 0.00 | 0.00 | 88 | 1009.0 |
| 20260505150918 | 25 | 151 | 4.8 | 11.3 | 0.00 | 0.00 | 0.00 | 88 | 1008.9 |
| 20260505150352 | 25 | 159 | 3.2 | 14.5 | 0.00 | 0.00 | 0.00 | 88 | 1008.9 |
| 20260505140618 | 24 | 194 | 3.2 | 14.5 | 0.00 | 0.00 | 0.00 | 91 | 1008.8 |